Regional Weather Roundup
Issued by NWS Cleveland, OH

Home | Current Version | Previous Version | Graphics & Text | Print | Product List | Glossary On
Versions: 1 2 3 4 5 6 7 8 9 10 11 12 13 14 15 16 17 18 19 20 21 22 23 24 25 26 27 28 29 30 31 32 33 34 35 36 37 38 39 40 41 42 43 44 45 46 47 48 49 50
000
ASUS41 KCLE 010010
RWRCLE
OHIO REGIONAL WEATHER ROUNDUP
NATIONAL WEATHER SERVICE CLEVELAND, OH
800 PM EDT SUN APR 30 2017

NOTE: "FAIR" INDICATES FEW OR NO CLOUDS BELOW 12,000 FEET WITH NO
SIGNIFICANT WEATHER AND/OR OBSTRUCTIONS TO VISIBILITY.

OHZ001>008-015>018-024>027-034-035-043-044-010100-
   NORTHWEST OHIO

CITY           SKY/WX    TMP DP  RH WIND       PRES   REMARKS
DEFIANCE       CLOUDY    63  62  97 CALM      29.78F
FINDLAY        CLOUDY    66  62  87 E5        29.80F
TOLEDO EXPRESS LGT RAIN  54  54 100 E5        29.80F FOG
TOLEDO EXEC    CLOUDY    54  54 100 NE3       29.82F FOG
LIMA           CLOUDY    65  64  97 SE8       29.79F
$$

OHZ009>014-019>023-028>033-038-089-010100-
   NORTHEAST OHIO

CITY           SKY/WX    TMP DP  RH WIND       PRES   REMARKS
CLE-HOPKINS    MOCLDY    81  61  50 S10       29.82F
CLE-LAKEFRONT  MOCLDY    60  54  80 VRB5      29.79F
CUY CO. ARPT   MOCLDY    81  64  57 S10       29.83F
LORAIN-ELYRIA  CLOUDY    65  59  81 NW25G33   29.85R THUNDER
ASHTABULA      CLOUDY    64  57  78 E3        29.86F
AKRON-CANTON   PTCLDY    77  62  59 S12       29.86S
WOOSTER        MOCLDY    75  64  68 S8        29.86R
MANSFIELD      CLOUDY    77  63  61 S16       29.84S
YOUNGSTOWN     MOCLDY    75  63  66 S6        29.87F
$$

OHZ042-051>053-060>062-070>072-077>081-010100-
  SOUTHWEST OHIO

CITY           SKY/WX    TMP DP  RH WIND       PRES   REMARKS
CINC-COVINGTON CLOUDY    78  61  55 S22       29.79F
CINC-LUNKEN    CLOUDY    80  62  54 S14       29.79F
HAMILTON       CLOUDY    81  62  52 S10G25    29.79F
DAYTON         CLOUDY    78  62  57 S16G24    29.79F
WRIGHT-PAT AFB CLOUDY    80  61  53 S15       29.79F
DAYTON GENERAL CLOUDY    79  60  52 S17G31    29.79F
WILMINGTON     PTCLDY    76  64  66 S8        29.83S
$$

OHZ036-037-039>041-045>050-054>059-063>069-073>076-082>088-010100-
  CENTRAL AND SOUTHEAST OHIO

CITY           SKY/WX    TMP DP  RH WIND       PRES   REMARKS
COLUMBUS       CLOUDY    80  66  62 S9        29.83F
OSU AIRPORT    MOCLDY    80  65  59 S10       29.82F
BOLTON FIELD   NOT AVBL
RICKENBACK AFB CLOUDY    77  68  73 S5        29.83S
NEWARK         MOCLDY    77  69  76 CALM      29.84S
MARION         CLOUDY    77  63  61 S12       29.83R
LANCASTER      CLOUDY    80  65  59 S3        29.85F
ZANESVILLE     CLEAR     77  65  66 S7        29.86S
NEW PHILLY     NOT AVBL
$$



USA.gov is the U.S. government's official web portal to all federal, state and local government web resources and services.